Regional Weather Roundup
Issued by NWS

Home | Current Version | Previous Version | Text Only | Print | Product List | Glossary Off
Versions: 1 2 3 4 5 6 7 8 9 10 11 12 13 14 15 16 17 18 19 20 21 22 23 24 25 26 27 28 29 30 31 32 33 34 35 36 37 38 39 40 41 42 43 44 45 46 47 48 49 50

000
ASUS43 KDMX 181806
RWRIA

WEATHER ROUNDUP FOR IOWA
NATIONAL WEATHER SERVICE DES MOINES IA
1200 PM CST SUN FEB 18 2018

NOTE: "FAIR" INDICATES FEW OR NO CLOUDS BELOW 12,000 FEET WITH NO
SIGNIFICANT WEATHER AND/OR OBSTRUCTIONS TO VISIBILITY.

* - THESE STATIONS ARE NOT NWS STATIONS...THUS NOT UNDER NWS
QUALITY CONTROL.  THEY ALSO DO NOT REPORT WEATHER SUCH
AS PRECIPITATION OR FOG.

IAZ001>003-012>014-020>022-031>034-043>046-181900-
   NORTHWEST IOWA

CITY           SKY/WX    TMP DP  RH WIND       PRES   REMARKS
CARROLL *      CLOUDY    48  32  53 S38G51    29.69F
CHEROKEE *     CLOUDY    45  31  59 S30G37    29.62F
DENISON *      CLOUDY    48  32  53 S31G41    29.70F
LE MARS *      CLOUDY    41  30  65 S31G39    29.57F
ORANGE CITY *  CLOUDY    39  34  81 S26G33    29.59F WCI  28
SHELDON *      CLOUDY    39  30  70 S26G37    29.56F WCI  28
SIOUX CITY     MOSUNNY   43  30  60 S17G30    29.64F
6HR MIN TEMP:  30; 6HR MAX TEMP:  44; 6HR PCP: TRACE;

SPENCER        CLOUDY    41  30  65 S30G41    29.59F
6HR MIN TEMP:  26; 6HR MAX TEMP:  42;

STORM LAKE *   CLOUDY    43  34  70 S32G41    29.62F
$$

IAZ055>058-069>071-079>083-090>094-181900-
   SOUTHWEST IOWA

CITY           SKY/WX    TMP DP  RH WIND       PRES   REMARKS
ATLANTIC *     CLOUDY    50  28  43 S28G41    29.74F
AUDUBON *      CLOUDY    48  30  49 S32G40    29.74F
CLARINDA *     CLOUDY    52  25  35 S30G39    29.82F
COUNCIL BLFS * CLOUDY    50  30  46 S28G37    29.71F
CRESTON *      CLOUDY    52  25  35 S30G40    29.82F
HARLAN  *      CLOUDY    48  30  49 S30G45    29.75F
LAMONI         CLOUDY    49  25  39 S25G37    29.89F
6HR MIN TEMP:  28; 6HR MAX TEMP:  49;

RED OAK *      CLOUDY    52  27  37 S25G44    29.78F
SHENANDOAH *   CLOUDY    52  27  37 S25G41    29.79F
$$

IAZ047>049-059>061-072>074-084-181900-
   CENTRAL IOWA

CITY           SKY/WX    TMP DP  RH WIND       PRES   REMARKS
AMES           CLOUDY    46  29  51 S23G35    29.81F
6HR MIN TEMP:  23; 6HR MAX TEMP:  46;

ANKENY *       CLOUDY    48  27  43 S24G40    29.86F
BOONE *        MOSUNNY   46  28  49 S28G46    29.76F
CHARITON *     CLOUDY    50  25  37 S29G38    29.88F
DES MOINES     CLOUDY    49  26  41 S25G38    29.86F
6HR MIN TEMP:  28; 6HR MAX TEMP:  49;

GRINNELL*      CLOUDY    42  32  68 S24G30    29.93F
KNOXVILLE *    CLOUDY    48  25  40 S33       29.87F
MARSHALLTOWN   CLOUDY    44  32  62 S25G35    29.86F
6HR MIN TEMP:  20; 6HR MAX TEMP:  44;

NEWTON *       CLOUDY    45  30  57 S25G37    29.88F
PELLA *        CLOUDY    47  29  49 S17G29    29.92F
PERRY *        FAIR      47  30  52 S30G39    29.78F
$$

IAZ004>006-015-016-023>025-035-036-181900-
   NORTH CENTRAL IOWA

CITY           SKY/WX    TMP DP  RH WIND       PRES   REMARKS
ALGONA *       CLOUDY    41 N/A N/A S35G45    29.65F
CLARION *      CLOUDY    37  37 100 S22G30    29.75F WCI  27
ESTHERVILLE    CLOUDY    37  31  78 S32G39    29.61F WCI  24
6HR MIN TEMP:  21; 6HR MAX TEMP:  37;

FORT DODGE *   CLOUDY    42  32  67 S22G30    29.73F
MASON CITY     MOSUNNY   40  31  70 S24G33    29.78F WCI  29
6HR MIN TEMP:  20; 6HR MAX TEMP:  40;

FOREST CITY *  FAIR      41  32  70 S26G32    29.73F
WEBSTER CITY * CLOUDY    41  32  70 S21       29.74F
IOWA FALLS *   FAIR      41  32  71 S24G33    29.81F
$$

IAZ007>011-017>019-026>030-037>042-050>054-066-181900-
   NORTHEAST IOWA

CITY           SKY/WX    TMP DP  RH WIND       PRES   REMARKS
CEDAR RAPIDS   FAIR      40  29  64 S21G30    29.96F WCI  30
6HR MIN TEMP:  19; 6HR MAX TEMP:  40;

CHARLES CITY * CLOUDY    37  32  81 S22G31    29.83F WCI  27
CLINTON *      FAIR      34  27  75 SE18      30.08F WCI  23
DECORAH *      FAIR      39  30  70 SE18G29   29.87F WCI  30
DUBUQUE        FAIR      31  26  82 S22G29    30.02F WCI  18
6HR MIN TEMP:  15; 6HR MAX TEMP:  31;

MONTICELLO *   FAIR      34  34 100 SE17      30.00F WCI  23
OELWEIN *      MIX PCPN  36  36 100 S30G37    29.91F WCI  22
WATERLOO       FAIR      37  30  75 S25G32    29.87F WCI  25
6HR MIN TEMP:  17; 6HR MAX TEMP:  37;

$$

IAZ064-065-067-068-078-181900-
   EAST CENTRAL IOWA

CITY           SKY/WX    TMP DP  RH WIND       PRES   REMARKS
DAVENPORT      FAIR      36  27  69 SE23      30.08F WCI  24
6HR MIN TEMP:  15; 6HR MAX TEMP:  36;

IOWA CITY      FAIR      40  28  62 SE13      30.03F WCI  32
6HR MIN TEMP:  17; 6HR MAX TEMP:  40;

MT. PLEASANT * CLOUDY    45  30  57 S22G33    30.03F
MUSCATINE *    FAIR      39  28  65 SE14G20   30.05F WCI  31
QUAD CITIES    FAIR      36  29  75 S20G26    30.07F WCI  25
6HR MIN TEMP:  11; 6HR MAX TEMP:  36;

$$

IAZ062-063-075>077-085>089-095>099-181900-
   SOUTHEAST IOWA

CITY           SKY/WX    TMP DP  RH WIND       PRES   REMARKS
BURLINGTON     CLOUDY    44  30  57 S16       30.06F
6HR MIN TEMP:  25; 6HR MAX TEMP:  45;

FAIRFIELD *    CLOUDY    46  27  46 S24       29.99F
FORT MADISON * CLOUDY    43  34  70 S16G23    30.06F
KEOKUK *       CLOUDY    45  30  57 S13G28    30.05F
OSKALOOSA *    FAIR      41  28  60 S23G33    29.94F
OTTUMWA        MOSUNNY   47  27  45 S28G37    29.96F
6HR MIN TEMP:  28; 6HR MAX TEMP:  47;

WASHINGTON *   CLOUDY    41  32  70 S21G28    30.01F
$$

ABBREVIATIONS USED IN REMARKS
   TC - TEMPERATURES IN CELSIUS
  WCI - WIND CHILL INDEX
   HX - HEAT INDEX
  VSB - VISIBILITY
$$





USA.gov is the U.S. government's official web portal to all federal, state and local government web resources and services.